logo tempoitalia

Diretta Meteo Aurora, Stati Uniti (USA)lunedì 31 agosto ore 00:15

Mappa
Sereno 23 °C Sereno 24 Ore: T.min 22 T.max 32
Ponente Nord Km/h 0 Punto di rugiada: 22 °C Umidità: 94% Visibilità: 10 Km
Il sole sorge alle: 06:58 Il sole tramonta alle: 20:06
31 Agosto 2026 00:15 tempo osservato: Sereno Sereno 23 94 1010 vento: Nord N 0
30 Agosto 2026 23:55 tempo osservato: Sereno Sereno 23 94 1010 vento: Nord N 5.5
30 Agosto 2026 23:35 tempo osservato: Sereno Sereno 24 88 1010 vento: Nord N 0
30 Agosto 2026 23:15 tempo osservato: Sereno Sereno 23 94 1010 vento: Nord N 5.5
30 Agosto 2026 22:55 tempo osservato: Foschia Foschia 24 94 1010 vento: Nord N 0
30 Agosto 2026 22:35 tempo osservato: Sereno Sereno 24 94 1011 vento: Nord O 7.4
30 Agosto 2026 22:15 tempo osservato: Sereno Sereno 24 94 1011 vento: Nord N 0
30 Agosto 2026 21:55 tempo osservato: Sereno Sereno 25 88 1011 vento: Nord N 5.5
30 Agosto 2026 21:35 tempo osservato: Sereno Sereno 25 88 1011 vento: Nord N 0
30 Agosto 2026 21:15 tempo osservato: Sereno Sereno 25 88 1011 vento: Nord N 5.5
30 Agosto 2026 20:55 tempo osservato: Sereno Sereno 25 94 1010 vento: Nord O 9.3
30 Agosto 2026 20:35 tempo osservato: Sereno Sereno 27 83 1010 vento: Nord N 5.5
30 Agosto 2026 20:15 tempo osservato: Sereno Sereno 28 74 1010 vento: Nord N 5.5
30 Agosto 2026 19:55 tempo osservato: Sereno Sereno 28 78 1010 vento: Nord N 0
30 Agosto 2026 19:35 tempo osservato: Pioggia Pioggia 29 74 1010 vento: Nord N 0
30 Agosto 2026 19:15 tempo osservato: Sereno Sereno 30 70 1010 vento: Nord N 0
30 Agosto 2026 18:55 tempo osservato: Sereno Sereno 30 66 1010 vento: Nord N 0
30 Agosto 2026 18:35 tempo osservato: Sereno Sereno 31 58 1010 vento: Nord N 5.5
30 Agosto 2026 18:15 tempo osservato: Sereno Sereno 32 55 1010 vento: Nord N 0
30 Agosto 2026 17:55 tempo osservato: Sereno Sereno 32 52 1010 vento: Nord N 0
30 Agosto 2026 17:35 tempo osservato: Sereno Sereno 32 55 1010 vento: Nord SO 7.4
30 Agosto 2026 17:15 tempo osservato: Sereno Sereno 32 52 1010 vento: Nord S 9.3
30 Agosto 2026 16:55 tempo osservato: Sereno Sereno 32 52 1009 vento: Nord S 13
30 Agosto 2026 16:35 tempo osservato: Sereno Sereno 31 58 1010 vento: Nord S 14.8
30 Agosto 2026 16:15 tempo osservato: Sereno Sereno 31 58 1010 vento: Nord S/SO 14.8
30 Agosto 2026 15:55 tempo osservato: Sereno Sereno 31 58 1010 vento: Nord S 14.8
30 Agosto 2026 15:35 tempo osservato: Sereno Sereno 31 62 1010 vento: Nord S 14.8
30 Agosto 2026 15:15 tempo osservato: Sereno Sereno 31 62 1010 vento: Nord S 16.7
30 Agosto 2026 14:55 tempo osservato: Sereno Sereno 31 62 1010 vento: Nord S 11.1
30 Agosto 2026 14:35 tempo osservato: Sereno Sereno 31 58 1010 vento: Nord S/SE 7.4
30 Agosto 2026 14:15 tempo osservato: Sereno Sereno 31 55 1010 vento: Nord SE 9.3
30 Agosto 2026 13:55 tempo osservato: Sereno Sereno 31 55 1010 vento: Nord N 0
30 Agosto 2026 13:35 tempo osservato: Sereno Sereno 31 55 1010 vento: Nord N 0
30 Agosto 2026 13:15 tempo osservato: Sereno Sereno 30 58 1010 vento: Nord N 5.5
30 Agosto 2026 12:55 tempo osservato: Sereno Sereno 30 58 1010 vento: Nord NO 13
30 Agosto 2026 12:35 tempo osservato: Sereno Sereno 31 55 1009 vento: Nord N/NO 14.8
30 Agosto 2026 12:15 tempo osservato: Sereno Sereno 30 55 1010 vento: Nord NO 11.1
30 Agosto 2026 11:55 tempo osservato: Sereno Sereno 29 58 1010 vento: Nord O 9.3
30 Agosto 2026 11:35 tempo osservato: Sereno Sereno 28 58 1011 vento: Nord SO 16.7
30 Agosto 2026 11:15 tempo osservato: Sereno Sereno 28 58 1011 vento: Nord SO 14.8
30 Agosto 2026 10:55 tempo osservato: Sereno Sereno 28 58 1010 vento: Nord O/SO 14.8
30 Agosto 2026 10:35 tempo osservato: Sereno Sereno 27 57 1010 vento: Nord O/SO 14.8
30 Agosto 2026 10:15 tempo osservato: Sereno Sereno 26 65 1010 vento: Nord O 11.1
30 Agosto 2026 09:55 tempo osservato: Sereno Sereno 26 65 1010 vento: Nord O 11.1
30 Agosto 2026 09:35 tempo osservato: Sereno Sereno 25 65 1010 vento: Nord O 9.3
30 Agosto 2026 09:15 tempo osservato: Sereno Sereno 24 69 1010 vento: Nord N 5.5
30 Agosto 2026 08:55 tempo osservato: Sereno Sereno 24 69 1010 vento: Nord S/SO 9.3
30 Agosto 2026 08:35 tempo osservato: Sereno Sereno 24 64 1009 vento: Nord S 11.1
30 Agosto 2026 08:15 tempo osservato: Sereno Sereno 24 64 1009 vento: Nord S 11.1
30 Agosto 2026 07:55 tempo osservato: Sereno Sereno 24 64 1009 vento: Nord S 11.1
30 Agosto 2026 07:35 tempo osservato: Sereno Sereno 23 73 1009 vento: Nord S 11.1
30 Agosto 2026 07:15 tempo osservato: Sereno Sereno 23 73 1009 vento: Nord S 9.3
30 Agosto 2026 06:55 tempo osservato: Sereno Sereno 22 83 1009 vento: Nord S 13
30 Agosto 2026 06:35 tempo osservato: Sereno Sereno 22 83 1009 vento: Nord S/SE 9.3
30 Agosto 2026 06:15 tempo osservato: Sereno Sereno 23 78 1009 vento: Nord S/SE 9.3
30 Agosto 2026 05:55 tempo osservato: Sereno Sereno 23 78 1009 vento: Nord S/SE 16.7
30 Agosto 2026 05:35 tempo osservato: Sereno Sereno 24 78 1009 vento: Nord S/SE 14.8
30 Agosto 2026 05:15 tempo osservato: Sereno Sereno 23 83 1009 vento: Nord S/SE 13
30 Agosto 2026 04:55 tempo osservato: Temporale Temporale 23 83 1009 vento: Nord S/SE 14.8
30 Agosto 2026 04:35 tempo osservato: Sereno Sereno 22 94 1010 vento: Nord SE 11.1
30 Agosto 2026 04:15 tempo osservato: Sereno Sereno 23 83 1011 vento: Nord N 0
30 Agosto 2026 03:55 tempo osservato: Nuvoloso Nuvoloso 23 83 1011 vento: Nord N 5.5
30 Agosto 2026 03:35 tempo osservato: Temporale Temporale 23 83 1011 vento: Nord O 7.4
30 Agosto 2026 03:15 tempo osservato: Temporale Temporale 24 73 1011 vento: Nord N 5.5
30 Agosto 2026 02:55 tempo osservato: Temporale nelle vicinanze Temporale nelle vicinanze 23 78 1011 vento: Nord SO 9.3
30 Agosto 2026 02:35 tempo osservato: Sereno Sereno 25 65 1010 vento: Nord S 7.4
30 Agosto 2026 02:15 tempo osservato: Sereno Sereno 25 65 1010 vento: Nord S 9.3
30 Agosto 2026 01:55 tempo osservato: Sereno Sereno 25 65 1010 vento: Nord S 11.1
30 Agosto 2026 01:35 tempo osservato: Sereno Sereno 25 69 1010 vento: Nord S 11.1
30 Agosto 2026 01:15 tempo osservato: Sereno Sereno 25 69 1010 vento: Nord S 11.1
30 Agosto 2026 00:55 tempo osservato: Sereno Sereno 26 65 1010 vento: Nord S 11.1
30 Agosto 2026 00:35 tempo osservato: Sereno Sereno 27 61 1010 vento: Nord S 13